Regional Weather Roundup
Issued by NWS Cleveland, OH

Home | Current Version | Previous Version | Text Only | Print | Product List | Glossary Off
Versions: 1 2 3 4 5 6 7 8 9 10 11 12 13 14 15 16 17 18 19 20 21 22 23 24 25 26 27 28 29 30 31 32 33 34 35 36 37 38 39 40 41 42 43 44 45 46 47 48 49 50

000
ASUS41 KCLE 172012
RWRCLE
OHIO REGIONAL WEATHER ROUNDUP
NATIONAL WEATHER SERVICE WILMINGTON, OH
300 PM EST TUE JAN 17 2017

NOTE: "FAIR" INDICATES FEW OR NO CLOUDS BELOW 12,000 FEET WITH NO
SIGNIFICANT WEATHER AND/OR OBSTRUCTIONS TO VISIBILITY.

OHZ001>008-015>018-024>027-034-035-043-044-172100-
   NORTHWEST OHIO

CITY           SKY/WX    TMP DP  RH WIND       PRES   REMARKS
DEFIANCE       CLOUDY    48  43  82 W10G20    29.85R
FINDLAY        CLOUDY    53  44  71 W14       29.83R
TOLEDO EXPRESS CLOUDY    47  45  93 SW23G32   29.81R
TOLEDO EXEC    CLOUDY    50  46  86 SW22G28   29.81R
LIMA           CLOUDY    53  47  79 W25       29.85R
$$

OHZ009>014-019>023-028>033-038-089-172100-
   NORTHEAST OHIO

CITY           SKY/WX    TMP DP  RH WIND       PRES   REMARKS
CLE-HOPKINS    PTSUNNY   57  45  64 W17G23    29.82R
CLE-LAKEFRONT  CLOUDY    49  43  80 W8        29.79R
CUY CO. ARPT   CLOUDY    57 N/A N/A W14       29.79R
LORAIN-ELYRIA  CLOUDY    55  45  68 W21G30    29.81R
ASHTABULA      CLOUDY    57  52  83 W10       29.78S
AKRON-CANTON   PTSUNNY   59  47  64 W17G24    29.81R
WOOSTER        CLOUDY    55  47  74 W17       29.82R
MANSFIELD      CLOUDY    53  47  79 SW15G24   29.83R
YOUNGSTOWN     PTSUNNY   57  52  83 SW12      29.80S
$$

OHZ042-051>053-060>062-070>072-077>081-172100-
  SOUTHWEST OHIO

CITY           SKY/WX    TMP DP  RH WIND       PRES   REMARKS
CINC-COVINGTON CLOUDY    57  48  72 W14G23    29.90R
CINC-LUNKEN    CLOUDY    59  50  72 W14G24    29.91R
HAMILTON       PTSUNNY   56  48  74 W14G23    29.92R
DAYTON         PTSUNNY   53  46  77 W21       29.88R
WRIGHT-PAT AFB PTSUNNY   56  49  75 W20G26    29.86S
DAYTON GENERAL PTSUNNY   56  47  71 SW17G29   29.87S
WILMINGTON     CLOUDY    57  48  72 W22G31    29.87S
$$

OHZ036-037-039>041-045>050-054>059-063>069-073>076-082>088-172100-
  CENTRAL AND SOUTHEAST OHIO

CITY           SKY/WX    TMP DP  RH WIND       PRES   REMARKS
COLUMBUS       PTSUNNY   60  49  66 W15       29.86R
OSU AIRPORT    PTSUNNY   58  50  75 SW18G28   29.85S
BOLTON FIELD   CLOUDY    57  52  82 W9G17     29.87S
RICKENBACK AFB   N/A     57  51  79 W13       29.86S
NEWARK         CLOUDY    60  51  72 W14G20    29.85R
MARION         CLOUDY    54  47  77 W15       29.85R
LANCASTER      CLOUDY    61  51  70 W9G22     29.87R
ZANESVILLE     PTSUNNY   63  52  67 W15G22    29.84R
NEW PHILLY     CLOUDY    60  51  72 W7        29.83R
$$



USA.gov is the U.S. government's official web portal to all federal, state and local government web resources and services.